When you browse on this site, cookies collect data to enhance your experience and personalize the content and advertising you see.
Visit our Privacy Policy to learn more. By continuing to use the site, you agree to this use of cookies and data.
  • In France
  • List of Countries
  • For 7 days
  • Water Temperature
  • Satellite Maps
  • Weather Map
  • Weather Widgets
  • user-avatar
    Login

    Hourly Weather Caen

    Today, 20 April, Saturday

    Time Temperature Precipitation Wind Pressure Humidity
    00:00 +12°C° 0 mm 2 mps 769 mmHg 88%
    01:00 +12°C° 0 mm 2 mps 769 mmHg 88%
    02:00 +10°C° 0 mm 2 mps 769 mmHg 88%
    03:00 +10°C° 0 mm 2 mps 769 mmHg 88%
    04:00 +10°C° 0 mm 2 mps 769 mmHg 89%
    05:00 +10°C° 0 mm 2 mps 769 mmHg 89%
    06:00 +10°C° 0 mm 2 mps 769 mmHg 90%
    07:00 +12°C° 0 mm 3 mps 769 mmHg 86%
    08:00 +14°C° 0 mm 3 mps 769 mmHg 82%
    09:00 +17°C° 0 mm 4 mps 769 mmHg 78%
    10:00 +18°C° 0 mm 4 mps 769 mmHg 75%
    11:00 +19°C° 0 mm 4 mps 768 mmHg 72%
    12:00 +21°C° 0 mm 5 mps 768 mmHg 69%
    13:00 +21°C° 0 mm 5 mps 768 mmHg 68%
    14:00 +21°C° 0 mm 5 mps 768 mmHg 68%
    15:00 +21°C° 0 mm 5 mps 767 mmHg 67%
    16:00 +20°C° 0 mm 5 mps 767 mmHg 71%
    17:00 +17°C° 0 mm 5 mps 767 mmHg 75%
    18:00 +16°C° 0 mm 5 mps 767 mmHg 79%
    19:00 +15°C° 0 mm 4 mps 767 mmHg 82%
    20:00 +14°C° 0 mm 4 mps 767 mmHg 85%
    21:00 +12°C° 0 mm 3 mps 768 mmHg 88%
    22:00 +12°C° 0 mm 3 mps 767 mmHg 88%
    23:00 +12°C° 0 mm 3 mps 767 mmHg 89%

    Tomorrow, 21 April, Sunday

    Time Temperature Precipitation Wind Pressure Humidity
    00:00 +11°C° 0 mm 3 mps 767 mmHg 89%
    01:00 +12°C° 0 mm 2 mps 767 mmHg 89%
    02:00 +12°C° 0 mm 2 mps 766 mmHg 90%
    03:00 +12°C° 0 mm 2 mps 766 mmHg 90%
    04:00 +12°C° 0 mm 1 mps 765 mmHg 90%
    05:00 +12°C° 0 mm 1 mps 765 mmHg 89%
    06:00 +12°C° 0 mm 1 mps 765 mmHg 88%
    07:00 +14°C° 0 mm 1 mps 765 mmHg 82%
    08:00 +16°C° 0 mm 1 mps 764 mmHg 77%
    09:00 +18°C° 0 mm 2 mps 764 mmHg 71%
    10:00 +19°C° 0 mm 2 mps 764 mmHg 68%
    11:00 +20°C° 0 mm 2 mps 763 mmHg 65%
    12:00 +21°C° 0 mm 3 mps 763 mmHg 62%
    13:00 +21°C° 0 mm 3 mps 762 mmHg 62%
    14:00 +21°C° 0 mm 3 mps 762 mmHg 63%
    15:00 +21°C° 0 mm 3 mps 761 mmHg 64%
    16:00 +20°C° 0 mm 3 mps 761 mmHg 69%
    17:00 +19°C° 0 mm 3 mps 760 mmHg 75%
    18:00 +18°C° 0 mm 3 mps 760 mmHg 80%
    19:00 +16°C° 0 mm 3 mps 760 mmHg 83%
    20:00 +14°C° 0 mm 3 mps 760 mmHg 85%
    21:00 +13°C° 0 mm 3 mps 760 mmHg 88%
    22:00 +13°C° 0 mm 2 mps 759 mmHg 89%
    23:00 +13°C° 0 mm 2 mps 758 mmHg 89%

    Day after tomorrow, 22 April, Monday

    Time Temperature Precipitation Wind Pressure Humidity
    00:00 +12°C° 0 mm 2 mps 758 mmHg 90%
    01:00 +12°C° 0 mm 2 mps 757 mmHg 89%
    02:00 +12°C° 0 mm 2 mps 756 mmHg 88%
    03:00 +10°C° 0 mm 2 mps 756 mmHg 87%
    04:00 +10°C° 0 mm 2 mps 755 mmHg 87%
    05:00 +12°C° 0 mm 2 mps 754 mmHg 86%
    06:00 +12°C° 0 mm 2 mps 754 mmHg 85%
    07:00 +14°C° 0 mm 2 mps 753 mmHg 81%
    08:00 +16°C° 0 mm 2 mps 753 mmHg 76%
    09:00 +18°C° 0 mm 2 mps 753 mmHg 72%
    10:00 +19°C° 0 mm 2 mps 752 mmHg 69%
    11:00 +20°C° 0 mm 2 mps 751 mmHg 66%
    12:00 +21°C° 0 mm 2 mps 751 mmHg 64%
    13:00 +21°C° 0.6 mm 3 mps 750 mmHg 67%
    14:00 +21°C° 0.6 mm 3 mps 749 mmHg 70%
    15:00 +21°C° 0.6 mm 3 mps 749 mmHg 74%
    16:00 +20°C° 0.6 mm 3 mps 748 mmHg 76%
    17:00 +20°C° 0.6 mm 2 mps 748 mmHg 79%
    18:00 +19°C° 0.6 mm 2 mps 748 mmHg 82%
    19:00 +19°C° 0.8 mm 1 mps 748 mmHg 84%
    20:00 +16°C° 0.8 mm 1 mps 748 mmHg 86%
    21:00 +15°C° 0.8 mm 1 mps 748 mmHg 88%
    22:00 +15°C° 0.5 mm 1 mps 747 mmHg 89%
    23:00 +15°C° 0.5 mm 1 mps 747 mmHg 89%

    23 April, Tuesday

    Time Temperature Precipitation Wind Pressure Humidity
    00:00 +13°C° 0.5 mm 0 mps 747 mmHg 89%
    01:00 +14°C° 0 mm 1 mps 747 mmHg 90%
    02:00 +14°C° 0 mm 1 mps 746 mmHg 90%
    03:00 +14°C° 0 mm 2 mps 746 mmHg 90%
    04:00 +14°C° 0 mm 2 mps 746 mmHg 91%
    05:00 +14°C° 0 mm 2 mps 746 mmHg 92%
    06:00 +14°C° 0 mm 2 mps 746 mmHg 92%
    07:00 +15°C° 0 mm 2 mps 746 mmHg 89%
    08:00 +17°C° 0 mm 2 mps 746 mmHg 85%
    09:00 +19°C° 0 mm 2 mps 746 mmHg 81%
    10:00 +19°C° 0.2 mm 2 mps 746 mmHg 77%
    11:00 +20°C° 0.2 mm 2 mps 746 mmHg 74%
    12:00 +21°C° 0.2 mm 3 mps 745 mmHg 70%
    13:00 +21°C° 0.4 mm 3 mps 745 mmHg 70%
    14:00 +21°C° 0.4 mm 3 mps 745 mmHg 71%
    15:00 +21°C° 0.4 mm 3 mps 744 mmHg 71%
    16:00 +20°C° 1.6 mm 3 mps 744 mmHg 76%
    17:00 +19°C° 1.6 mm 3 mps 744 mmHg 81%
    18:00 +18°C° 1.6 mm 2 mps 745 mmHg 86%
    19:00 +17°C° 1 mm 3 mps 745 mmHg 88%
    20:00 +16°C° 1 mm 3 mps 745 mmHg 90%
    21:00 +14°C° 1 mm 3 mps 746 mmHg 92%
    22:00 +14°C° 0 mm 3 mps 746 mmHg 93%
    23:00 +13°C° 0 mm 4 mps 746 mmHg 94%

    24 April, Wednesday

    Time Temperature Precipitation Wind Pressure Humidity
    00:00 +13°C° 0 mm 5 mps 747 mmHg 95%
    01:00 +12°C° 0 mm 4 mps 747 mmHg 95%
    02:00 +11°C° 0 mm 4 mps 747 mmHg 96%
    03:00 +10°C° 0 mm 4 mps 747 mmHg 96%
    04:00 +11°C° 0 mm 4 mps 748 mmHg 95%
    05:00 +11°C° 0 mm 4 mps 748 mmHg 95%
    06:00 +11°C° 0 mm 4 mps 749 mmHg 94%
    07:00 +12°C° 0 mm 4 mps 749 mmHg 90%
    08:00 +13°C° 0 mm 4 mps 750 mmHg 86%
    09:00 +13°C° 0 mm 5 mps 750 mmHg 82%
    10:00 +13°C° 0.3 mm 4 mps 751 mmHg 82%
    11:00 +13°C° 0.3 mm 4 mps 751 mmHg 81%
    12:00 +13°C° 0.3 mm 3 mps 751 mmHg 81%
    13:00 +14°C° 0.2 mm 4 mps 751 mmHg 76%
    14:00 +15°C° 0.2 mm 4 mps 751 mmHg 72%
    15:00 +15°C° 0.2 mm 5 mps 750 mmHg 67%
    16:00 +15°C° 0.1 mm 5 mps 751 mmHg 70%
    17:00 +14°C° 0.1 mm 4 mps 751 mmHg 74%
    18:00 +13°C° 0.1 mm 4 mps 751 mmHg 77%
    19:00 +12°C° 0 mm 4 mps 751 mmHg 77%
    20:00 +12°C° 0 mm 4 mps 751 mmHg 77%
    21:00 +10°C° 0 mm 5 mps 752 mmHg 76%
    22:00 +9°C° 0 mm 5 mps 752 mmHg 78%
    23:00 +9°C° 0 mm 5 mps 751 mmHg 79%

    25 April, Thursday

    Time Temperature Precipitation Wind Pressure Humidity
    00:00 +9°C° 0 mm 6 mps 751 mmHg 80%
    01:00 +8°C° 0 mm 6 mps 751 mmHg 80%
    02:00 +8°C° 0 mm 6 mps 751 mmHg 80%
    03:00 +8°C° 0 mm 6 mps 750 mmHg 81%
    04:00 +8°C° 0 mm 6 mps 750 mmHg 82%
    05:00 +8°C° 0 mm 6 mps 750 mmHg 83%
    06:00 +8°C° 0 mm 6 mps 750 mmHg 85%
    07:00 +9°C° 0.2 mm 6 mps 751 mmHg 86%
    08:00 +9°C° 0.2 mm 6 mps 751 mmHg 87%
    09:00 +10°C° 0.2 mm 6 mps 752 mmHg 88%
    10:00 +11°C° 0.1 mm 6 mps 752 mmHg 81%
    11:00 +13°C° 0.1 mm 5 mps 752 mmHg 74%
    12:00 +14°C° 0.1 mm 4 mps 753 mmHg 66%
    13:00 +14°C° 0.5 mm 4 mps 753 mmHg 70%
    14:00 +13°C° 0.5 mm 3 mps 754 mmHg 73%
    15:00 +13°C° 0.5 mm 3 mps 754 mmHg 77%
    16:00 +11°C° 1.4 mm 4 mps 755 mmHg 82%
    17:00 +10°C° 1.4 mm 4 mps 756 mmHg 87%
    18:00 +7°C° 1.4 mm 4 mps 757 mmHg 92%
    19:00 +7°C° 0.1 mm 4 mps 758 mmHg 91%
    20:00 +7°C° 0.1 mm 4 mps 759 mmHg 89%
    21:00 +7°C° 0.1 mm 4 mps 760 mmHg 88%
    22:00 +7°C° 0 mm 4 mps 761 mmHg 89%
    23:00 +6°C° 0 mm 5 mps 761 mmHg 89%
    Show more